Corpus Christi, TX

12:02 PM CDT on July 26, 2017 (GMT -0500)
Corpus Christi International

Weather History for KCRP - April, 2012

Change the Weather History Date:

Monday, April 23, 2012

  Actual Average Record
Temperature  
Mean Temperature 70 °F 74 °F  
Max Temperature 80 °F 83 °F 102 °F (1955)
Min Temperature 59 °F 65 °F 48 °F (1998)
Degree Days  
Heating Degree Days 0 0  
Month to date heating degree days 0 15  
Since 1 July heating degree days 611 896  
Cooling Degree Days 5 9  
Month to date cooling degree days 274 169  
Year to date cooling degree days 677 360  
Growing Degree Days 20 (Base 50)    
Moisture  
Dew Point 53 °F    
Average Humidity 58    
Maximum Humidity 84    
Minimum Humidity 32    
Precipitation  
Precipitation 0.00 in 0.07 in 7.19 in (1956)
Month to date precipitation 2.58 1.35  
Year to date precipitation 8.47 6.71  
Snow  
Snow 0.00 in - - ()
Month to date snowfall 0.0  
Since 1 July snowfall 0.0  
Snow Depth 0.00 in    
Sea Level Pressure  
Sea Level Pressure 30.11 in    
Wind  
Wind Speed 10 mph (East)    
Max Wind Speed 21 mph    
Max Gust Speed 25 mph    
Visibility 10 miles    
Events      
T = Trace of Precipitation, MM = Missing Value Source: NWS Daily Summary

Daily Weather History Graph

Daily Weather History Graph

Search for Another Location

Airport or City:

Trip Planner

Search our weather history database for the weather conditions in past years. The results will help you decide how hot, cold, wet, or windy it might be!

Date:

Astronomy

Apr. 23, 2012 Rise Set
Actual Time 6:56 AM CDT 7:59 PM CDT
Civil Twilight 6:32 AM CDT 8:24 PM CDT
Nautical Twilight 6:03 AM CDT 8:53 PM CDT
Astronomical Twilight 5:34 AM CDT 9:22 PM CDT
Moon 8:20 AM CDT (4/23) 10:18 PM CDT (4/23)
Length of Visible Light 13h 51m
Length of Day
13h 02m
Waxing Crescent, 5% of the Moon is Illuminated
Apr 23
Waxing Crescent
Apr 29
First Quarter
May 5
Full
May 12
Last Quarter
May 20
New

Hourly Weather History & Observations

Time (CDT) Temp. Dew Point Humidity Pressure Visibility Wind Dir Wind Speed Gust Speed Precip Events Conditions
12:51 AM 64.0 °F 57.9 °F 80% 30.09 in 10.0 mi SSW 4.6 mph - N/A   Clear
1:51 AM 63.0 °F 57.0 °F 81% 30.09 in 10.0 mi SW 5.8 mph - N/A   Clear
2:51 AM 62.1 °F 55.0 °F 78% 30.08 in 10.0 mi West 4.6 mph - N/A   Clear
3:51 AM 60.1 °F 54.0 °F 80% 30.07 in 10.0 mi WSW 4.6 mph - N/A   Clear
4:51 AM 60.1 °F 54.0 °F 80% 30.07 in 10.0 mi West 3.5 mph - N/A   Clear
5:51 AM 63.0 °F 55.0 °F 75% 30.10 in 10.0 mi NNE 8.1 mph - N/A   Clear
6:51 AM 62.1 °F 55.0 °F 78% 30.12 in 10.0 mi ENE 3.5 mph - N/A   Clear
7:51 AM 66.9 °F 57.0 °F 70% 30.13 in 10.0 mi NE 8.1 mph - N/A   Clear
8:51 AM 71.1 °F 55.0 °F 57% 30.15 in 10.0 mi NE 15.0 mph - N/A   Clear
9:51 AM 75.0 °F 50.0 °F 41% 30.17 in 10.0 mi ENE 16.1 mph - N/A   Clear
10:51 AM 77.0 °F 46.9 °F 34% 30.19 in 10.0 mi NE 17.3 mph 24.2 mph N/A   Clear
11:51 AM 78.1 °F 46.9 °F 33% 30.18 in 10.0 mi ENE 16.1 mph - N/A   Clear
12:51 PM 79.0 °F 48.9 °F 35% 30.17 in 10.0 mi East 17.3 mph - N/A   Clear
1:51 PM 79.0 °F 50.0 °F 36% 30.16 in 10.0 mi ENE 13.8 mph 21.9 mph N/A   Partly Cloudy
2:51 PM 80.1 °F 52.0 °F 38% 30.14 in 10.0 mi East 15.0 mph 21.9 mph N/A   Partly Cloudy
3:51 PM 78.1 °F 52.0 °F 40% 30.12 in 10.0 mi East 16.1 mph 21.9 mph N/A   Partly Cloudy
4:51 PM 77.0 °F 53.1 °F 43% 30.10 in 10.0 mi East 15.0 mph - N/A   Partly Cloudy
5:51 PM 75.9 °F 54.0 °F 46% 30.08 in 10.0 mi East 11.5 mph - N/A   Partly Cloudy
6:51 PM 73.9 °F 53.1 °F 48% 30.07 in 10.0 mi East 11.5 mph - N/A   Partly Cloudy
7:51 PM 72.0 °F 55.0 °F 55% 30.08 in 10.0 mi East 6.9 mph - N/A   Partly Cloudy
8:51 PM 68.0 °F 55.0 °F 63% 30.09 in 10.0 mi ESE 6.9 mph - N/A   Partly Cloudy
9:51 PM 66.0 °F 55.0 °F 68% 30.09 in 10.0 mi SE 6.9 mph - N/A   Clear
10:51 PM 64.9 °F 55.9 °F 73% 30.09 in 10.0 mi SE 5.8 mph - N/A   Clear
11:51 PM 64.0 °F 57.0 °F 78% 30.07 in 10.0 mi SE 5.8 mph - N/A   Clear